Weather History for Melbourne, FL

Change the Weather History Date:

Wednesday, August 28, 2013

  Actual Average Record
Temperature  
Mean Temperature 81 °F 82 °F  
Max Temperature 88 °F 90 °F 97 °F (1938)
Min Temperature 73 °F 73 °F 67 °F (1997)
Degree Days  
Heating Degree Days 0 0  
Month to date heating degree days 0 0  
Since 1 June heating degree days 0 0  
Since 1 July heating degree days 0 0  
Cooling Degree Days 16 17  
Month to date cooling degree days 508 476  
Year to date cooling degree days 2397 2180  
Since 1 June cooling degree days 1536 1454  
Growing Degree Days 30 (Base 50)    
Moisture  
Dew Point 70 °F    
Average Humidity 71    
Maximum Humidity 87    
Minimum Humidity 55    
Precipitation  
Precipitation 0.00 in 0.24 in 5.17 in (1964)
Month to date precipitation 1.77 6.94  
Year to date precipitation 30.75 33.11  
Sea Level Pressure  
Sea Level Pressure 30.03 in    
Wind  
Wind Speed 7 mph (ENE)    
Max Wind Speed 14 mph    
Max Gust Speed 20 mph    
Visibility 10 miles    
Events      
T = Trace of Precipitation, MM = Missing Value Source: NWS Daily Summary

Daily Weather History Graph

Daily Weather History Graph

Search for Another Location

Airport:

Trip Planner

Search our weather history database for the weather conditions in past years. The results will help you decide how hot, cold, wet, or windy it might be!

Date:

Astronomy

Aug. 28, 2013 Rise Set
Actual Time 6:59 AM EDT 7:47 PM EDT
Civil Twilight 6:35 AM EDT 8:11 PM EDT
Nautical Twilight 6:06 AM EDT 8:39 PM EDT
Astronomical Twilight 5:37 AM EDT 9:08 PM EDT
Moon 12:18 AM EDT (8/28) 2:09 PM EDT (8/28)
Length of Visible Light 13h 36m
Length of Day
12h 48m
Waning Gibbous, 47% of the Moon is Illuminated
Aug 28
Waning Gibbous
Sep 5
New
Sep 12
First Quarter
Sep 19
Full
Sep 26
Last Quarter

Hourly Weather History & Observations

Time (EDT) Temp. Heat Index Dew Point Humidity Pressure Visibility Wind Dir Wind Speed Gust Speed Precip Events Conditions
12:53 AM 80.1 °F 83.2 °F 70.0 °F 71% 30.03 in 10.0 mi ENE 5.8 mph - N/A   Clear
1:53 AM 80.1 °F 82.9 °F 69.1 °F 69% 30.02 in 10.0 mi East 5.8 mph - N/A   Clear
2:53 AM 80.1 °F 82.9 °F 69.1 °F 69% 30.01 in 10.0 mi East 4.6 mph - N/A   Partly Cloudy
3:53 AM 75.0 °F - 69.1 °F 82% 30.00 in 10.0 mi Calm Calm - N/A   Partly Cloudy
4:53 AM 73.9 °F - 69.1 °F 85% 30.00 in 10.0 mi North 3.5 mph - N/A   Clear
5:53 AM 75.9 °F - 70.0 °F 82% 30.00 in 10.0 mi NE 4.6 mph - N/A   Clear
6:53 AM 75.0 °F - 70.0 °F 84% 30.01 in 10.0 mi Calm Calm - N/A   Clear
7:53 AM 80.1 °F 83.6 °F 71.1 °F 74% 30.02 in 10.0 mi ENE 5.8 mph - N/A   Clear
8:53 AM 82.9 °F 87.0 °F 70.0 °F 65% 30.03 in 10.0 mi East 8.1 mph - N/A   Clear
9:53 AM 84.0 °F 89.0 °F 71.1 °F 65% 30.05 in 10.0 mi East 6.9 mph - N/A   Clear
10:53 AM 84.9 °F 89.4 °F 70.0 °F 61% 30.06 in 10.0 mi ENE 8.1 mph - N/A   Scattered Clouds
11:53 AM 86.0 °F 90.7 °F 70.0 °F 59% 30.07 in 10.0 mi NNE 8.1 mph - N/A   Scattered Clouds
12:53 PM 87.1 °F 92.0 °F 70.0 °F 57% 30.05 in 10.0 mi NE 10.4 mph - N/A   Scattered Clouds
1:53 PM 88.0 °F 92.9 °F 70.0 °F 55% 30.03 in 10.0 mi NE 11.5 mph - N/A   Scattered Clouds
2:53 PM 87.1 °F 92.0 °F 70.0 °F 57% 30.03 in 10.0 mi East 11.5 mph - N/A   Partly Cloudy
3:53 PM 87.1 °F 92.0 °F 70.0 °F 57% 30.03 in 10.0 mi ENE 10.4 mph - N/A   Clear
4:53 PM 86.0 °F 90.7 °F 70.0 °F 59% 30.01 in 10.0 mi NE 10.4 mph 16.1 mph N/A   Clear
5:53 PM 84.9 °F 88.8 °F 69.1 °F 59% 30.01 in 10.0 mi East 8.1 mph - N/A   Clear
6:53 PM 82.9 °F 86.5 °F 69.1 °F 63% 30.01 in 10.0 mi East 9.2 mph - N/A   Clear
7:53 PM 82.0 °F 85.9 °F 70.0 °F 67% 30.01 in 10.0 mi ENE 5.8 mph - N/A   Partly Cloudy
8:53 PM 82.0 °F 86.3 °F 71.1 °F 69% 30.02 in 10.0 mi ESE 8.1 mph - N/A   Mostly Cloudy
9:53 PM 82.0 °F 86.3 °F 71.1 °F 69% 30.03 in 10.0 mi East 9.2 mph - N/A   Overcast
10:53 PM 82.0 °F 86.3 °F 71.1 °F 69% 30.04 in 10.0 mi East 6.9 mph - N/A   Overcast
11:53 PM 82.0 °F 87.4 °F 73.0 °F 74% 30.04 in 10.0 mi East 6.9 mph - N/A   Overcast